sat.trackr.live / text

‹ back to catalog

STARLINK-32273

NORAD 61956 · 2024-209T

PAYLOAD ACTIVE UNKNOWN

§ Identity

Operator
Country
US
Launch date
2024-11-14
Launch site
AFWTR
Launch vehicle
Mass (kg)
RCS (m²)

Purposes: comms

External: N2YO · Heavens-Above · Gunter

§ Orbital elements

Epoch: 2026-09-21T03:39:29.346336Z

Period
93.85 min
Inclination
53.1603°
Eccentricity
0.0001246
Mean motion
15.34401298 rev/d
Perigee alt
461.8 km
Apogee alt
463.6 km
Semi-major
6,840.8 km
B*
4.8326e-4
RAAN
312.3370°
Arg perigee
80.3854°
Mean anomaly
279.7289°
Rev number
10,485

§ Raw data

STARLINK-322731 61956U 24209T   26264.15242299  .00015987  00000+0  48326-3 0  99932 61956  53.1603 312.3370 0001246  80.3854 279.7289 15.34401298104856

JSON: /api/v1/satellites/61956 · /tle

For live sub-satellite position, see the globe view (requires WebGL).

§ Visibility from observer

Set your observer location to see the next 7 days of passes ≥ 10°. The values pass through the URL so the page stays shareable.

No JS? Fill the form by hand. The geolocation button needs JavaScript.